Wind_Speed
26 27 28 30 32 33 35 37 38 40 42 42 43 43 43 44 44 45 46 47 49 50 53 55 58 61 63 66 68 69 70 71 72 73 73 73 73 72 72 69 66 63 59
29 29 31 32 34 35 37 39 41 43 44 45 46 46 46 47 48 49 50 50 52 54 56 59 62 64 67 70 72 75 77 78 80 80 80 80 79 79 78 77 75 71 68
31 32 34 35 36 38 39 41 43 45 46 46 46 46 47 48 50 51 51 52 54 57 60 62 65 68 71 74 78 80 83 85 87 89 89 89 88 87 85 84 82 80 77
33 35 36 37 38 40 42 44 46 47 46 45 46 48 48 48 47 49 51 54 57 61 64 68 70 74 77 80 83 86 89 92 94 95 96 97 97 96 94 93 90 88 84
35 36 37 39 40 42 44 46 47 47 46 46 47 47 47 47 49 52 55 58 62 65 69 73 76 80 84 87 89 92 94 96 97 99 101 102 103 103 102 100 98 95 93
36 37 39 40 42 43 45 48 49 48 46 46 45 46 48 50 52 55 59 62 66 69 73 77 80 83 87 91 94 96 97 99 101 104 106 108 108 108 108 107 104 102 99
37 39 40 42 43 45 48 49 49 49 48 48 48 49 52 54 56 58 62 65 68 71 74 79 84 89 92 93 92 96 101 106 110 114 116 118 119 120 118 116 112 108 106
38 40 41 43 45 48 50 50 50 51 51 51 52 53 53 54 57 59 63 67 71 75 79 86 90 94 94 95 100 107 115 122 127 128 126 126 128 129 131 130 128 122 115
39 40 42 45 47 50 52 53 53 54 55 56 57 58 59 60 61 63 66 72 76 80 85 91 92 97 98 103 111 118 115 103 93 92 91 90 94 100 108 117 127 133 129
41 41 43 47 49 51 53 54 55 56 57 58 59 61 63 65 68 69 71 77 81 86 88 89 95 99 104 109 106 92 77 72 72 73 75 78 80 83 84 84 87 100 118
42 43 46 48 50 52 54 56 58 58 59 61 62 63 65 68 72 75 77 79 82 84 88 91 98 103 105 91 75 68 62 58 55 55 56 58 63 71 77 80 80 74 88
44 46 48 51 53 55 57 58 59 60 62 63 66 66 68 71 74 78 80 82 84 82 89 98 104 102 90 69 61 56 48 44 41 37 36 38 44 50 58 67 71 56 57
46 48 51 54 55 57 59 60 61 62 64 65 67 68 70 73 76 79 81 83 83 84 90 100 105 90 68 56 48 41 34 32 30 26 24 23 27 33 41 50 58 56 63
48 49 51 54 56 59 61 61 62 63 65 66 68 68 70 73 75 78 80 83 82 85 94 93 88 77 55 45 36 31 29 29 27 27 25 25 25 26 30 36 43 50 56
49 50 52 54 57 60 61 61 63 64 66 67 67 68 70 72 74 77 79 85 89 88 92 82 73 61 46 33 30 31 33 33 32 30 28 28 27 28 30 33 39 44 49
48 50 53 56 59 61 62 62 64 64 66 66 67 67 69 71 73 76 80 85 90 95 97 72 59 53 40 29 35 38 36 32 33 32 31 32 30 29 29 33 37 41 45
47 51 54 58 60 62 62 63 63 64 65 65 66 66 68 71 72 75 80 85 90 96 90 64 53 45 38 28 37 36 37 38 37 37 35 33 33 33 33 35 41 43 44
49 52 55 59 61 61 62 65 62 63 63 63 64 65 67 69 71 75 80 85 89 89 73 60 51 41 35 37 36 38 43 45 37 30 27 20 20 23 25 25 33 40 44
50 52 55 58 61 63 62 62 61 61 60 61 63 64 66 67 71 75 80 84 89 84 62 56 51 38 33 36 36 43 43 31 20 15 15 17 23 25 27 32 32 32 41
50 53 55 59 61 61 60 59 58 58 58 60 61 63 64 67 70 75 78 83 86 74 54 50 50 36 31 33 38 43 25 17 14 16 19 25 28 31 24 26 33 33 36
55 56 58 59 60 59 55 55 56 56 57 58 60 61 63 66 70 74 77 85 85 67 51 46 46 37 29 32 36 34 18 18 19 22 25 28 32 40 30 26 27 31 38
56 57 59 58 58 53 52 54 54 54 55 57 58 58 61 63 68 72 80 84 75 57 47 45 41 35 27 31 35 27 18 18 18 29 27 31 35 34 18 16 19 29 32
58 59 58 54 51 51 53 52 52 53 55 56 57 57 60 61 69 75 78 82 68 49 47 47 43 32 26 31 32 23 18 23 26 25 28 25 21 24 25 19 19 26 33
59 56 52 49 51 51 52 51 50 52 54 56 56 58 59 62 69 74 78 81 59 42 43 45 42 34 25 28 30 18 21 24 24 26 28 23 24 31 26 23 16 25 44
55 52 48 50 51 51 50 48 49 50 53 54 55 57 59 62 69 75 78 73 48 36 40 43 41 33 25 26 27 20 23 24 24 25 24 28 32 35 26 19 14 40 50
51 46 47 52 51 49 48 47 47 48 51 52 53 56 59 63 70 76 75 63 40 32 37 38 39 33 24 23 24 20 23 25 23 21 26 28 31 34 13 12 18 63 62
Wind_Direction
285 288 291 291 290 290 293 300 304 307 307 306 305 304 301 297 294 291 287 283 280 278 277 276 274 273 272 271 270 269 268 266 264 263 262 262 261 257 256 254 254 253 253
284 288 289 289 289 292 296 301 304 307 308 308 306 303 300 297 294 291 289 286 284 283 281 279 278 277 276 274 273 271 269 268 266 263 261 260 259 259 257 254 254 253 252
284 287 289 290 292 294 296 301 303 306 307 306 302 300 298 296 294 292 290 287 285 284 282 282 281 280 278 276 274 272 270 268 267 265 263 262 260 258 257 257 254 253 252
285 287 289 291 294 296 298 300 303 306 306 303 302 300 297 295 293 292 290 289 287 286 285 284 281 279 278 276 275 273 271 269 267 265 264 262 260 258 256 255 255 253 252
285 287 289 291 295 296 298 301 303 305 303 300 298 297 297 296 294 293 292 290 289 287 285 283 282 280 279 278 277 276 275 273 271 269 266 264 261 259 256 253 251 251 250
283 286 288 291 294 297 302 304 303 301 301 302 300 299 297 296 296 294 294 293 291 291 290 289 287 285 284 282 280 279 278 275 273 270 268 265 262 260 256 253 249 247 246
283 284 287 291 295 300 303 305 303 304 305 304 302 301 301 301 299 298 296 294 293 292 293 293 292 292 290 289 289 288 286 283 279 275 270 267 262 258 257 255 251 248 244
281 284 288 293 298 299 301 306 306 306 305 305 305 304 302 300 299 298 298 299 299 299 299 297 296 295 294 295 295 295 291 288 283 279 274 269 263 259 255 254 252 249 244
281 284 290 295 296 301 304 305 306 307 307 307 307 305 303 303 302 303 303 303 303 303 303 301 301 299 303 304 301 298 296 289 281 275 269 264 260 257 254 251 250 249 247
282 286 291 295 298 302 304 304 305 306 307 306 306 305 304 305 304 303 305 307 308 308 307 306 304 305 310 309 306 300 295 291 284 278 272 265 258 252 247 244 243 242 242
282 286 290 295 299 302 304 304 303 305 306 306 306 306 306 307 308 308 307 309 311 312 311 310 309 314 314 310 303 300 298 295 290 284 275 266 258 250 243 239 238 239 233
283 286 290 295 299 301 303 304 304 305 306 307 308 308 308 308 309 309 310 311 313 314 313 314 314 318 316 309 304 302 301 294 291 289 281 267 256 248 242 236 233 237 231
283 287 290 295 297 299 302 303 303 305 306 308 309 309 310 310 311 312 313 314 316 317 318 318 319 320 313 308 306 304 299 296 295 295 290 279 263 249 239 234 232 230 227
284 287 291 294 296 298 301 302 303 305 306 308 309 310 310 311 313 314 315 316 318 320 322 322 319 318 314 310 307 312 312 307 305 299 292 284 274 260 247 238 234 233 228
285 289 291 294 296 298 300 301 303 305 306 309 310 310 312 313 316 317 318 319 320 323 325 323 316 315 315 307 310 313 308 306 305 300 292 284 275 267 258 252 243 239 234
284 287 290 294 297 298 299 300 303 305 307 309 310 311 313 315 317 319 319 321 324 325 328 323 316 312 313 307 308 308 308 305 299 294 286 280 276 271 264 256 248 242 240
285 287 291 294 296 298 298 300 302 306 308 309 310 313 314 317 318 320 321 323 325 326 326 324 318 305 308 307 308 307 308 306 298 293 287 280 275 270 267 259 251 244 240
290 292 293 295 296 297 297 300 302 306 309 309 311 314 316 318 320 322 323 325 327 326 322 322 321 303 297 300 308 310 308 305 302 289 282 281 280 273 268 260 255 245 238
292 295 296 295 295 295 296 299 303 307 309 310 312 315 318 320 322 323 325 327 328 325 319 322 322 304 295 302 308 312 312 305 291 275 274 284 291 285 284 268 257 247 237
293 296 297 295 292 292 294 301 305 307 308 311 315 318 319 321 323 325 327 330 329 323 315 319 318 306 293 303 309 315 306 292 277 275 284 304 311 318 290 273 263 245 236
292 295 296 293 291 293 299 303 306 307 309 313 316 318 320 323 325 326 330 331 328 322 316 318 317 305 293 304 311 311 280 266 271 268 281 307 313 302 296 277 273 251 226
295 297 295 291 291 298 301 304 304 306 310 314 317 319 322 325 325 328 332 330 326 318 313 318 320 303 290 301 314 305 279 262 269 282 301 315 303 306 291 281 266 235 220
297 296 293 291 297 301 302 303 305 308 312 315 317 319 322 324 323 328 332 330 325 313 314 318 324 308 286 296 311 305 279 264 272 286 303 318 311 308 294 280 270 220 204
292 291 289 292 299 301 302 303 307 310 313 316 317 320 323 322 325 330 332 329 320 304 309 316 321 313 283 293 314 293 263 272 278 300 310 331 332 330 298 267 252 208 191
285 288 288 292 298 302 302 304 306 312 315 315 317 320 321 324 329 331 330 325 317 302 310 313 319 314 282 290 310 297 277 272 279 305 317 337 333 329 303 248 235 192 194
283 282 284 296 300 300 301 303 308 313 312 315 317 318 322 328 330 331 329 323 314 303 309 314 316 314 283 284 303 304 276 279 283 303 314 337 331 336 307 231 199 182 190
Height
5785 5784 5783 5782 5782 5780 5778 5776 5773 5769 5765 5762 5759 5755 5753 5751 5749 5747 5745 5742 5740 5739 5738 5737 5736 5735 5734 5732 5732 5731 5730 5730 5730 5730 5731 5732 5733 5737 5740 5744 5748 5752 5756
5778 5778 5777 5776 5775 5773 5771 5768 5765 5761 5757 5753 5749 5746 5743 5740 5738 5736 5733 5731 5729 5727 5726 5724 5722 5719 5717 5715 5714 5712 5711 5710 5710 5710 5711 5712 5715 5717 5720 5725 5730 5734 5739
5772 5771 5771 5770 5768 5766 5763 5761 5758 5754 5750 5746 5742 5737 5733 5730 5727 5725 5722 5720 5718 5715 5712 5709 5706 5703 5700 5697 5694 5692 5690 5687 5686 5686 5687 5689 5692 5695 5699 5703 5709 5714 5720
5765 5765 5764 5762 5761 5758 5755 5752 5749 5745 5741 5737 5733 5728 5724 5721 5717 5713 5710 5707 5704 5701 5698 5693 5690 5685 5681 5677 5673 5670 5666 5664 5662 5660 5660 5661 5665 5669 5675 5680 5684 5692 5700
5758 5758 5757 5755 5752 5750 5747 5743 5739 5735 5731 5728 5724 5718 5714 5710 5706 5702 5697 5694 5690 5685 5681 5676 5672 5666 5661 5656 5650 5645 5640 5637 5634 5632 5631 5631 5633 5637 5644 5651 5659 5666 5674
5751 5751 5749 5746 5744 5741 5737 5733 5728 5725 5721 5717 5713 5708 5703 5700 5695 5691 5685 5680 5674 5669 5662 5656 5650 5644 5637 5628 5622 5617 5611 5605 5601 5597 5594 5594 5596 5599 5604 5614 5625 5637 5647
5744 5742 5740 5738 5735 5732 5728 5724 5718 5713 5708 5704 5701 5697 5691 5686 5682 5677 5672 5664 5658 5652 5644 5635 5627 5619 5610 5602 5594 5585 5577 5568 5561 5554 5550 5550 5552 5555 5561 5571 5585 5600 5615
5735 5734 5732 5729 5726 5722 5718 5713 5707 5702 5697 5693 5688 5684 5680 5677 5671 5666 5657 5648 5639 5632 5624 5611 5600 5588 5578 5571 5559 5543 5528 5513 5502 5492 5489 5490 5495 5503 5514 5525 5537 5556 5576
5727 5725 5722 5720 5716 5712 5706 5702 5697 5691 5685 5679 5675 5669 5663 5659 5654 5650 5642 5631 5620 5611 5600 5586 5573 5557 5549 5537 5517 5497 5476 5462 5449 5440 5437 5438 5440 5449 5459 5473 5489 5508 5528
5718 5715 5713 5710 5706 5701 5697 5691 5686 5680 5674 5668 5662 5656 5649 5641 5634 5630 5625 5612 5601 5587 5576 5562 5544 5530 5518 5494 5468 5448 5435 5427 5417 5409 5405 5403 5407 5413 5422 5434 5446 5461 5479
5708 5706 5703 5700 5696 5691 5686 5680 5675 5669 5663 5656 5650 5643 5634 5625 5616 5610 5605 5597 5587 5570 5550 5539 5521 5506 5482 5458 5441 5427 5416 5404 5395 5387 5380 5378 5378 5383 5391 5403 5416 5429 5444
5698 5696 5693 5689 5684 5680 5674 5669 5663 5657 5650 5643 5636 5628 5620 5612 5604 5594 5587 5577 5567 5555 5534 5512 5494 5478 5453 5437 5422 5412 5402 5391 5383 5375 5369 5364 5363 5365 5372 5382 5394 5405 5418
5688 5686 5682 5678 5673 5668 5662 5657 5651 5645 5637 5630 5622 5614 5605 5597 5588 5577 5568 5559 5548 5536 5516 5488 5463 5452 5437 5423 5411 5402 5393 5385 5378 5372 5366 5361 5358 5358 5361 5368 5378 5389 5400
5678 5675 5671 5666 5661 5656 5650 5645 5638 5632 5624 5616 5608 5600 5592 5583 5572 5561 5550 5539 5534 5518 5496 5465 5445 5432 5422 5411 5402 5395 5388 5382 5376 5371 5366 5362 5360 5359 5361 5365 5371 5377 5386
5667 5663 5659 5655 5649 5644 5638 5632 5626 5619 5611 5604 5596 5587 5579 5569 5558 5546 5533 5518 5502 5496 5488 5455 5428 5419 5410 5402 5395 5390 5383 5377 5372 5367 5363 5359 5358 5357 5359 5361 5365 5369 5375
5656 5653 5649 5644 5638 5632 5626 5620 5614 5607 5599 5591 5584 5575 5566 5556 5544 5532 5518 5502 5484 5467 5455 5435 5421 5408 5402 5396 5389 5383 5376 5371 5366 5362 5358 5355 5353 5353 5354 5356 5358 5362 5367
5646 5642 5638 5632 5626 5621 5615 5609 5602 5595 5587 5579 5571 5563 5553 5543 5532 5519 5504 5488 5471 5450 5435 5429 5410 5399 5394 5389 5384 5375 5369 5365 5359 5354 5350 5347 5345 5345 5345 5346 5348 5350 5354
5635 5630 5626 5620 5615 5608 5603 5597 5590 5583 5576 5568 5560 5551 5541 5531 5519 5506 5492 5475 5457 5435 5420 5413 5403 5393 5387 5382 5377 5370 5362 5354 5349 5345 5342 5339 5338 5337 5336 5336 5337 5339 5343
5623 5619 5614 5608 5602 5597 5591 5585 5579 5572 5564 5556 5549 5540 5530 5519 5506 5493 5479 5463 5444 5426 5410 5400 5395 5385 5381 5375 5370 5362 5353 5347 5343 5341 5338 5336 5334 5332 5331 5330 5328 5328 5331
5611 5607 5602 5596 5590 5585 5579 5573 5567 5560 5552 5545 5537 5528 5518 5507 5496 5484 5469 5450 5432 5417 5405 5395 5386 5379 5374 5370 5363 5355 5350 5343 5341 5339 5336 5333 5329 5324 5322 5318 5316 5318 5321
5599 5594 5589 5583 5578 5573 5567 5562 5556 5549 5542 5534 5526 5517 5507 5495 5483 5470 5455 5439 5422 5407 5398 5389 5380 5371 5368 5364 5358 5350 5344 5342 5339 5336 5334 5330 5325 5320 5316 5313 5310 5310 5313
5585 5580 5575 5571 5567 5561 5556 5551 5545 5538 5531 5524 5516 5506 5495 5483 5471 5458 5440 5421 5406 5396 5390 5383 5374 5365 5363 5358 5354 5345 5342 5340 5338 5330 5331 5328 5321 5315 5311 5308 5306 5305 5308
5572 5567 5563 5559 5555 5550 5545 5540 5534 5527 5520 5513 5504 5496 5486 5474 5461 5449 5433 5413 5396 5385 5379 5375 5367 5358 5356 5352 5350 5344 5340 5337 5335 5332 5326 5324 5318 5313 5308 5305 5304 5304 5309
5559 5555 5552 5548 5544 5540 5535 5530 5523 5517 5509 5501 5492 5483 5475 5465 5450 5437 5424 5407 5391 5381 5375 5369 5360 5354 5350 5348 5343 5340 5338 5335 5333 5330 5323 5319 5314 5310 5303 5301 5302 5304 5312
5547 5544 5541 5538 5534 5529 5524 5518 5514 5507 5498 5489 5480 5471 5464 5453 5439 5427 5413 5397 5385 5377 5371 5363 5355 5349 5345 5343 5340 5337 5334 5333 5332 5328 5323 5318 5312 5306 5297 5295 5299 5303 5313
5536 5534 5531 5528 5523 5518 5513 5508 5502 5496 5489 5479 5470 5461 5451 5440 5428 5413 5399 5385 5377 5373 5367 5359 5350 5344 5340 5340 5337 5334 5332 5331 5329 5327 5322 5316 5310 5300 5296 5294 5297 5306 5318